OPS 9315 (IDSCS 5)

导读

OPS 9315(又称IDSCS 5)是美国于1966年6月16日08:00发射的一颗军事通信卫星,属于初始国防卫星通信系统(IDSCS)系列。该系列卫星是美国早期战略卫星通信网络的重要组成部分,旨在为美军提供全球范围的保密通信服务,支撑冷战时期的军事指挥与管控。作为该系列的第五颗卫星,OPS 9315承载着验证卫星通信技术、拓展空间军事基础设施的任务,见证了美国天基军事通信体系从探索到逐步成型的发展历程,在航天军事应用历史中具有标志性意义。

基本信息
目录编号:
2219
目录名称:
OPS 9315 (IDSCS 5)
国际标识:
1966-053F
轨道中心:
EARTH
卫星名称:
OPS 9315 (IDSCS 5)
卫星全名:
--
卫星状态:
在轨 (已飞行21943 天)
发射日期:
1966-06-16 UTC
国别 :
美国 (US)
星等 :
--
轨道信息
数据来源 国际轨道数据
星历时间: 2026-07-13T03:37:25+0800
1天前
查看轨道信息
半长轴: 40278.292km
偏心率: 0.0052569
轨道倾角: 8.606°
近地点辐角 191.180°
升交点赤经 45.055°
平近点角 168.706°
近地点: 33688.416km
远地点: 34111.894km
周期: 1340.807分钟
每日圈数: 1.07398
详细信息
使用方式:
暂无
2D轨道图
3D轨道图
轨道高度分析图
轨道倾角分析图
轨道综合分析图
查看轨道综合分析图